O3B PFM (39191 NORAD) Tracking and Keplerian Element Data

This shows tracking and keplerian element data for the satellite.

Feedback or suggestion? Click here.




ElementValue
Catalog39191
NameO3B PFM
Epoch Orbit9822
Epoch Day315.52404182
Epoch Year2018
RAAN19.2313
Inclination0.0383
Eccentricity0.0005699
Argument of Perigee258.0913
Mean Anonmoly82.6181
Mean Motion5.00112777
Decay Rate-2.8E-07
L11 39191U 13031D 18315.52404182 -.00000028 00000-0 00000-0 0 9996
L22 39191 0.0383 19.2313 0005699 258.0913 82.6181 5.00112777 98222

Live tracking and technical data element details for O3B PFM (NORAD 39191). O3B PFM can be tracked NOW for your location showing map with azimuth and elevation plus other details from your city location.

Track the satellite on the map from your city or location and see movement details for azimuth, elevation, latitude, longitude, range, height, and movement on the map or in text.







IsCatalogInMostPopularTable: catalog: 39191, numindb: 99
Update: records affected: 1



GetName: 39191 O3B PFM

Hit Count: updated at: Mon, 12 Nov 2018 21:43:18 GMT